This demonstration page uses our WeatherBlox Daily Observations layout. Learn more.

Left ArrowRight Arrow

41.86663, -103.66717

Hourly Observations for March 4, 2018

Temp ( °F °C ) Dew Point ( °F °C ) Humidity (%) Winds ( mph kmh ) Pressure ( in mb ) Visibility ( mi km ) Precip ( " mm )
12:53 am 00:53 Clear 35 1.7 30 -1.1 82 82 NNE 15 24 29.69 1005 10 16 N/A
1:53 am 01:53 Clear 34 1.1 30 -1.1 85 85 NNE 15 24 29.66 1005 10 16 N/A
2:53 am 02:53 Clear 31 -0.6 28 -2.2 89 89 N N/A 29.67 1005 10 16 N/A
3:53 am 03:53 Clear 29 -1.7 27 -2.8 92 92 N 8 13 29.70 1006 10 16 N/A
4:53 am 04:53 Partly Cloudy 28 -2.2 27 -2.8 96 96 NNE 10 17 29.71 1006 9 14 N/A
5:04 am 05:04 Mostly Cloudy 28 -2 27 -3 93 93 NNE 10 17 29.85 1011 8 13 N/A
5:37 am 05:37 Cloudy 29 -1.7 28 -2.2 96 96 NNE 5 7 29.85 1011 8 13 N/A
5:53 am 05:53 Cloudy 29 -1.7 27 -2.8 92 92 N 6 9 29.74 1007 9 14 N/A
6:16 am 06:16 Cloudy 29 -1.7 27 -2.8 92 92 NE 6 9 29.85 1011 9 14 N/A
6:53 am 06:53 Cloudy 29 -1.7 27 -2.8 92 92 NE 3 6 29.73 1007 8 13 N/A
7:53 am 07:53 Cloudy 29 -1.7 27 -2.8 92 92 NNE 5 7 29.76 1008 10 16 N/A
8:53 am 08:53 Cloudy 30 -1.1 27 -2.8 88 88 NE 3 6 29.75 1007 10 16 N/A
9:53 am 09:53 Cloudy 30 -1.1 28 -2.2 92 92 WNW 5 7 29.73 1007 10 16 N/A
10:53 am 10:53 Cloudy 33 0.6 28 -2.2 82 82 NNW 5 7 29.71 1006 10 16 N/A
11:23 am 11:23 Cloudy 34 1 28 -2 81 81 W 6 9 29.80 1009 10 16 N/A
11:53 am 11:53 Cloudy 35 1.7 29 -1.7 78 78 NW 6 9 29.70 1006 10 16 N/A
12:53 pm 12:53 Cloudy 37 2.8 29 -1.7 73 73 NNW 5 7 29.66 1005 10 16 N/A
1:04 pm 13:04 Mostly Cloudy 39 3.9 29 -1.7 67 67 N N/A 29.68 1005 10 16 N/A
1:14 pm 13:14 Partly Cloudy 39 3.9 30 -1.1 70 70 VRB 5 7 29.68 1005 10 16 N/A
1:53 pm 13:53 Sunny 42 5.6 30 -1.1 62 62 ENE 5 7 29.63 1004 10 16 N/A
2:53 pm 14:53 Sunny 45 7.2 31 -0.6 58 58 W 6 9 29.66 1005 10 16 N/A
3:53 pm 15:53 Sunny 45 7.2 31 -0.6 58 58 N 16 26 29.68 1005 10 16 N/A
4:53 pm 16:53 Sunny 43 6.1 30 -1.1 60 60 N 12 19 29.71 1006 10 16 N/A
5:53 pm 17:53 Clear 41 5 31 -0.6 67 67 N 12 19 29.74 1007 10 16 N/A
6:53 pm 18:53 Mostly Clear 36 2.2 30 -1.1 79 79 N 12 19 29.80 1009 10 16 N/A
7:53 pm 19:53 Cloudy 34 1.1 28 -2.2 79 79 NNW 16 26 29.85 1011 10 16 N/A
8:53 pm 20:53 Cloudy 34 1.1 28 -2.2 79 79 NW 13 20 29.87 1012 10 16 N/A
9:53 pm 21:53 Cloudy 33 0.6 27 -2.8 78 78 NW 16 26 29.89 1012 10 16 N/A
10:53 pm 22:53 Mostly Cloudy 30 -1.1 24 -4.4 79 79 NW 17 28 29.91 1013 10 16 N/A
11:53 pm 23:53 Clear 28 -2.2 19 -7.2 69 69 NW 14 22 29.93 1014 10 16 N/A

Powered by AerisWeather